TimeCET,TemperatureF,Dew PointF,Humidity,Sea Level PressureIn,VisibilityMPH,Wind Direction,Wind SpeedMPH,Gust SpeedMPH,PrecipitationIn,Events,Conditions,WindDirDegrees,DateUTC
12:00 AM,32.0,30.2,93,29.62,6.2,North,5.8,-,N/A,Snow,Light Snow,350,2012-10-27 22:00:00
1:00 AM,32.0,30.2,93,29.65,6.2,North,4.6,-,N/A,Snow,Light Snow,360,2012-10-27 23:00:00
2:00 AM,32.0,30.2,93,29.68,5.0,North,5.8,-,N/A,Snow,Light Snow,350,2012-10-28 00:00:00
2:00 AM,32.0,30.2,93,29.68,2.5,NW,3.5,-,N/A,Snow,Light Snow,310,2012-10-28 01:00:00
3:00 AM,30.2,30.2,100,29.71,2.5,WNW,6.9,-,N/A,Snow,Light Snow,290,2012-10-28 02:00:00
4:00 AM,30.2,30.2,100,29.71,3.1,WNW,5.8,-,N/A,Snow,Light Snow,300,2012-10-28 03:00:00
5:00 AM,30.2,30.2,100,29.74,3.7,West,5.8,-,N/A,Snow,Light Snow,280,2012-10-28 04:00:00
6:00 AM,32.0,30.2,93,29.77,3.7,West,4.6,-,N/A,Snow,Light Snow,270,2012-10-28 05:00:00
7:00 AM,32.0,32.0,100,29.77,5.0,WNW,4.6,-,N/A,,Overcast,290,2012-10-28 06:00:00
8:00 AM,33.8,32.0,93,29.80,5.0,WNW,5.8,-,N/A,,Overcast,300,2012-10-28 07:00:00
9:00 AM,32.0,32.0,100,29.83,5.0,WNW,5.8,-,N/A,,Overcast,290,2012-10-28 08:00:00
10:00 AM,35.6,33.8,93,29.83,6.2,West,4.6,-,N/A,,Mostly Cloudy,280,2012-10-28 09:00:00
11:02 AM,35.6,35.6,100,29.86,6.2,West,8.1,-,N/A,,Mostly Cloudy,280,2012-10-28 10:02:00
12:00 PM,35.6,33.8,93,29.86,6.2,West,6.9,-,N/A,,Mostly Cloudy,280,2012-10-28 11:00:00
1:00 PM,37.4,35.6,93,29.86,6.2,Variable,1.2,-,N/A,,Mostly Cloudy,0,2012-10-28 12:00:00
2:00 PM,41.0,32.0,70,29.86,6.2,NNE,4.6,-,N/A,,Mostly Cloudy,30,2012-10-28 13:00:00
3:00 PM,41.0,32.0,70,29.89,6.2,ENE,4.6,-,N/A,,Scattered Clouds,60,2012-10-28 14:00:00
4:00 PM,39.2,30.2,70,29.92,6.2,NE,5.8,-,N/A,,Mostly Cloudy,40,2012-10-28 15:00:00
5:00 PM,35.6,28.4,75,29.92,-9999.0,NE,5.8,-,N/A,,Clear,40,2012-10-28 16:00:00
6:00 PM,35.6,28.4,75,29.95,-9999.0,Variable,2.3,-,N/A,,Clear,0,2012-10-28 17:00:00
7:00 PM,32.0,28.4,87,29.95,-9999.0,Calm,Calm,-,N/A,,Clear,0,2012-10-28 18:00:00
8:00 PM,30.2,28.4,93,29.98,-9999.0,Variable,1.2,-,N/A,,Clear,0,2012-10-28 19:00:00
9:00 PM,32.0,28.4,87,29.98,-9999.0,Variable,2.3,-,N/A,,Clear,0,2012-10-28 20:00:00
10:00 PM,30.2,28.4,93,29.98,-9999.0,NW,2.3,-,N/A,,Clear,320,2012-10-28 21:00:00